[[{"header":{"parameterUnit":"m.s-1","parameterCategory":2,"la1":30.2991,"la2":30.254,"lo1":-89.0895,"lo2":-89.0444,"dy":0.0017,"dx":0.0017,"nx":28,"ny":28,"refTime":"2023-10-21T21:00:00:Z","depth":"0","parameterNumber":2,"parameterNumberName":"U-component_of_CURRENTS"},"data":[0,0,0,0,0,0,0,0,0,0,0,0,0,0,0,0,0,0,0,0,0,0,0,0,0,0,0,0,0,0,0,0,0,0,0,0,0,0,0,0,0,0,0,0,0,0,0,0,0,0,0,0,0,0,0,0,0,0,-0.069,-0.0691,0,-0.0808,-0.081,-0.0811,-0.0801,-0.08,-0.0798,-0.0797,-0.0848,-0.0851,-0.0854,0,0,0,0,0,0,0,0,0,0,0,0,0,-0.0547,-0.0549,-0.069,-0.0692,-0.0693,-0.0808,-0.081,-0.0811,-0.0802,-0.08,-0.0798,-0.0796,-0.0847,-0.0851,-0.0854,0,0,0,0,0,0,0,0,0,0,0,0,0,-0.0629,-0.0549,-0.069,-0.0704,-0.0706,-0.0808,-0.081,-0.0812,-0.0802,-0.08,-0.0797,-0.0795,-0.0846,-0.085,-0.0855,-0.0929,0,0,-0.0868,-0.087,0,0,0,0,0,0,0,0,-0.0624,-0.0634,-0.07,-0.0703,-0.0706,-0.0789,-0.0778,-0.0848,-0.0803,-0.0764,-0.0797,-0.0794,-0.0826,-0.0832,-0.0857,-0.0932,-0.0934,-0.0868,-0.0871,-0.0873,-0.0874,0,0,0,0,0,0,0,-0.0619,-0.063,-0.0735,-0.0702,-0.0706,-0.0736,-0.0744,-0.0792,-0.0804,-0.0767,-0.0767,-0.0784,-0.0826,-0.0853,-0.0858,-0.0934,-0.0868,-0.0872,-0.0874,-0.0876,-0.1102,-0.1105,0,0,0,0,0,0,-0.0607,-0.0624,-0.0731,-0.0738,-0.0661,-0.074,-0.0749,-0.0763,-0.0805,-0.081,-0.0786,-0.0783,-0.0847,-0.0853,-0.086,-0.0971,-0.0873,-0.0877,-0.0879,-0.1098,-0.1102,-0.1106,0,0,0,0,0,0,-0.0603,-0.0615,-0.0726,-0.0685,-0.0702,-0.0745,-0.0761,-0.0767,-0.0789,-0.0821,-0.0823,-0.0801,-0.0845,-0.0854,-0.0918,-0.0971,-0.0879,-0.0882,-0.1094,-0.11,-0.1104,-0.1179,0,0,0,0,0,0,-0.0598,-0.0613,-0.0627,-0.0685,-0.0704,-0.0799,-0.0764,-0.0771,-0.0804,-0.0802,-0.0835,-0.0837,-0.0844,-0.0912,-0.0922,-0.0975,-0.0886,-0.109,-0.1097,-0.1103,-0.1172,-0.1186,-0.1198,0,0,0,0,0,-0.0593,-0.0625,-0.0627,-0.0641,-0.0719,-0.0802,-0.0815,-0.0835,-0.0807,-0.084,-0.0859,-0.0836,-0.0959,-0.0918,-0.093,-0.0985,-0.1087,-0.1095,-0.1102,-0.1167,-0.1184,-0.1198,0,0,0,0,0,0,-0.0587,-0.0629,-0.0632,-0.0679,-0.074,-0.0801,-0.0832,-0.0842,-0.0885,-0.0871,-0.0881,-0.0888,-0.0966,-0.0974,-0.0928,-0.1073,-0.102,-0.1031,-0.1065,-0.1081,-0.1094,-0.1072,-0.0889,0,0,0,0,0,-0.059,-0.0613,-0.0673,-0.0715,-0.0738,-0.0783,-0.0818,-0.0836,-0.0879,-0.0894,-0.0921,-0.0956,-0.1013,-0.104,-0.1088,-0.1169,-0.1197,-0.1214,-0.1227,-0.1238,-0.1231,-0.1333,-0.1353,-0.1131,-0.1131,-0.1131,0,0,-0.0602,-0.0629,-0.0643,-0.0714,-0.0751,-0.0816,-0.0797,-0.0855,-0.0914,-0.0896,-0.0975,-0.1002,-0.1045,-0.1136,-0.1171,-0.1144,-0.1325,-0.1248,-0.1256,-0.1243,-0.1343,-0.1364,-0.1383,-0.1137,-0.1136,-0.1135,0,0,-0.0639,-0.0656,-0.0687,-0.0737,-0.08,-0.0843,-0.0858,-0.0926,-0.0955,-0.1042,-0.1045,-0.1106,-0.1187,-0.1237,-0.1269,-0.1387,-0.1389,-0.1401,-0.1449,-0.155,-0.1568,-0.1584,-0.1677,-0.1701,-0.1408,-0.1408,-0.1409,0,-0.0656,-0.0695,-0.0718,-0.0769,-0.0812,-0.0853,-0.0912,-0.0973,-0.1057,-0.109,-0.1074,-0.1214,-0.1242,-0.1359,-0.1393,-0.1416,-0.1462,-0.1382,-0.1564,-0.1581,-0.1596,-0.1687,-0.1713,-0.1413,-0.1412,-0.1412,-0.1412,0,-0.0718,-0.0753,-0.0781,-0.0849,-0.0908,-0.0968,-0.1045,-0.1108,-0.1138,-0.1188,-0.1296,-0.1353,-0.142,-0.1461,-0.1457,-0.1589,-0.1586,-0.1566,-0.1516,-0.1623,-0.1713,-0.1738,-0.1419,-0.1418,-0.1416,-0.1415,0,0,-0.0757,-0.0807,-0.0821,-0.0842,-0.0946,-0.0997,-0.1107,-0.121,-0.1262,-0.1354,-0.1442,-0.1543,-0.154,-0.1576,-0.1599,-0.1686,-0.1843,-0.1664,-0.1668,-0.1741,-0.2067,-0.1724,-0.1719,-0.1851,-0.1855,-0.1858,-0.2096,0,-0.0802,-0.0864,-0.0902,-0.099,-0.1026,-0.1097,-0.119,-0.1286,-0.136,-0.1462,-0.1541,-0.1617,-0.1598,-0.1619,-0.1714,-0.1809,-0.1907,-0.178,-0.1965,-0.1971,-0.1639,-0.1734,-0.1549,-0.1713,-0.212,-0.2125,-0.2128,0,-0.0864,-0.0885,-0.0946,-0.1014,-0.104,-0.1104,-0.1225,-0.1316,-0.1465,-0.1518,-0.1613,-0.1661,-0.1805,-0.176,-0.1991,-0.1908,-0.1984,-0.2059,-0.207,-0.1728,-0.1671,-0.1669,-0.1742,-0.1769,-0.2166,-0.2163,-0.216,0,-0.0851,-0.093,-0.0958,-0.0987,-0.1079,-0.1118,-0.1182,-0.1315,-0.138,-0.1538,-0.1582,-0.176,-0.1821,-0.1983,-0.2056,-0.2059,-0.2287,-0.2322,-0.2105,-0.2085,-0.1945,-0.1899,-0.2037,-0.2487,-0.2486,-0.2486,-0.2485,0,-0.0885,-0.0914,-0.0935,-0.0951,-0.0991,-0.1075,-0.1149,-0.1236,-0.1369,-0.1428,-0.1573,-0.1631,-0.1869,-0.1988,-0.2112,-0.2129,-0.2329,-0.2115,-0.2113,-0.1962,-0.1917,-0.1938,-0.1983,-0.2495,-0.2493,-0.2491,-0.2489,0,-0.0869,-0.0892,-0.091,-0.0959,-0.0975,-0.0996,-0.1087,-0.1145,-0.126,-0.1351,-0.1388,-0.1574,-0.1701,-0.1882,-0.2134,-0.2118,-0.2169,-0.2178,-0.1949,-0.1906,-0.1655,-0.1709,-0.1807,-0.1766,-0.2042,-0.2035,-0.2029,0,-0.0866,-0.0863,-0.0874,-0.0869,-0.0879,-0.092,-0.0957,-0.1076,-0.113,-0.1274,-0.1308,-0.1436,-0.1489,-0.1687,-0.1699,-0.183,-0.1944,-0.1698,-0.1631,-0.159,-0.1661,-0.173,-0.1699,-0.156,-0.1551,-0.1543,-0.1537,0,-0.0832,-0.0819,-0.0813,-0.0793,-0.0799,-0.0829,-0.0875,-0.0903,-0.1032,-0.1067,-0.1113,-0.1161,-0.1243,-0.1221,-0.1268,-0.1349,-0.1594,-0.1526,-0.1617,-0.1356,-0.1328,-0.1299,-0.1471,-0.1468,-0.1475,-0.148,-0.1484,-0.1486,-0.0785,-0.0747,-0.0719,-0.07,-0.0717,-0.0727,-0.0719,-0.0758,-0.0779,-0.0787,-0.0882,-0.0851,-0.085,-0.0851,-0.0932,-0.0869,-0.1045,-0.0916,-0.1024,-0.1129,-0.0932,-0.0859,-0.0715,-0.0717,-0.0719,-0.0721,-0.0723,0,-0.0719,-0.0667,-0.0637,-0.0606,-0.0602,-0.0637,-0.0659,-0.0619,-0.0568,-0.0535,-0.0508,-0.0409,-0.0376,-0.0461,-0.0377,-0.0408,-0.0539,-0.0509,-0.0706,-0.0729,-0.0801,-0.0606,-0.0265,-0.0265,-0.0265,-0.0265,-0.0265,-0.0265,-0.0674,-0.0594,-0.0559,-0.0493,-0.0488,-0.0439,-0.0426,-0.0345,-0.0291,-0.0122,-0.0015,-0.0009,-0.001,-0.0196,-0.0285,-0.0331,-0.0502,-0.0413,-0.0577,-0.0745,-0.0798,-0.0848,-0.0678,-0.0357,-0.0357,-0.0451,-0.0452,-0.0453]},{"header":{"parameterUnit":"m.s-1","parameterCategory":2,"la1":30.2991,"la2":30.254,"lo1":-89.0895,"lo2":-89.0444,"dy":0.0017,"dx":0.0017,"nx":28,"ny":28,"refTime":"2023-10-21T21:00:00:Z","depth":"0","parameterNumber":3,"parameterNumberName":"V-component_of_CURRENTS"},"data":[0,0,0,0,0,0,0,0,0,0,0,0,0,0,0,0,0,0,0,0,0,0,0,0,0,0,0,0,0,0,0,0,0,0,0,0,0,0,0,0,0,0,0,0,0,0,0,0,0,0,0,0,0,0,0,0,0,0,-0.1556,-0.1556,0,-0.1484,-0.1483,-0.1481,-0.1371,-0.137,-0.1369,-0.1368,-0.1124,-0.1118,-0.1113,0,0,0,0,0,0,0,0,0,0,0,0,0,-0.1509,-0.151,-0.1556,-0.1556,-0.1556,-0.1485,-0.1483,-0.1481,-0.1371,-0.137,-0.1369,-0.1368,-0.1125,-0.1119,-0.1112,0,0,0,0,0,0,0,0,0,0,0,0,0,-0.1484,-0.1511,-0.1556,-0.15,-0.1495,-0.1485,-0.1483,-0.148,-0.1372,-0.137,-0.1368,-0.1367,-0.1128,-0.112,-0.1111,-0.1094,0,0,-0.1086,-0.1083,0,0,0,0,0,0,0,0,-0.1486,-0.1485,-0.1508,-0.1504,-0.1498,-0.1443,-0.1377,-0.1346,-0.1372,-0.1409,-0.1368,-0.1366,-0.1222,-0.1206,-0.1185,-0.1083,-0.1072,-0.1086,-0.1081,-0.1077,-0.1075,0,0,0,0,0,0,0,-0.1488,-0.1487,-0.1518,-0.1508,-0.1502,-0.1448,-0.1442,-0.137,-0.1315,-0.1405,-0.1399,-0.1407,-0.1216,-0.1194,-0.1178,-0.1068,-0.1086,-0.1079,-0.1074,-0.107,-0.085,-0.0849,0,0,0,0,0,0,-0.1522,-0.1489,-0.1521,-0.1517,-0.1498,-0.1451,-0.1444,-0.1455,-0.1319,-0.1301,-0.1408,-0.1402,-0.1208,-0.1188,-0.1169,-0.1091,-0.1077,-0.107,-0.1065,-0.0851,-0.0849,-0.0848,0,0,0,0,0,0,-0.1522,-0.1526,-0.1524,-0.1508,-0.1505,-0.1456,-0.1467,-0.1455,-0.1422,-0.1325,-0.1301,-0.1389,-0.1206,-0.1181,-0.1102,-0.1082,-0.1066,-0.1058,-0.0852,-0.085,-0.0849,-0.0965,0,0,0,0,0,0,-0.152,-0.1526,-0.1539,-0.1511,-0.1508,-0.1532,-0.1469,-0.1455,-0.1434,-0.1425,-0.1301,-0.1277,-0.1203,-0.1115,-0.1094,-0.107,-0.1052,-0.0853,-0.0851,-0.0849,-0.0962,-0.0968,-0.0972,0,0,0,0,0,-0.1519,-0.1549,-0.154,-0.1544,-0.1529,-0.1535,-0.1527,-0.1478,-0.1436,-0.1437,-0.1344,-0.128,-0.1088,-0.1109,-0.1084,-0.1057,-0.0854,-0.0852,-0.0849,-0.096,-0.0967,-0.0972,0,0,0,0,0,0,-0.1532,-0.1542,-0.153,-0.156,-0.1557,-0.152,-0.1523,-0.1485,-0.1414,-0.1391,-0.1282,-0.1253,-0.1174,-0.1102,-0.1128,-0.0985,-0.0954,-0.0947,-0.1046,-0.1052,-0.1057,-0.1079,-0.1045,0,0,0,0,0,-0.1548,-0.1572,-0.157,-0.1594,-0.16,-0.1559,-0.1551,-0.152,-0.1465,-0.1432,-0.1347,-0.1241,-0.1149,-0.1093,-0.1012,-0.0943,-0.0866,-0.0902,-0.0907,-0.0912,-0.0911,-0.0797,-0.0793,-0.0841,-0.0842,-0.0842,0,0,-0.156,-0.1571,-0.1582,-0.1599,-0.1588,-0.1598,-0.1547,-0.1548,-0.1534,-0.1415,-0.1357,-0.1265,-0.1137,-0.106,-0.1015,-0.0994,-0.0857,-0.0909,-0.0915,-0.0911,-0.0795,-0.079,-0.0786,-0.084,-0.084,-0.0841,0,0,-0.1602,-0.161,-0.1642,-0.1649,-0.1655,-0.163,-0.1635,-0.1599,-0.1564,-0.1517,-0.141,-0.1308,-0.1191,-0.1083,-0.1014,-0.0994,-0.0897,-0.0963,-0.0995,-0.0885,-0.0881,-0.0876,-0.0779,-0.0764,-0.0955,-0.0955,-0.0955,0,-0.161,-0.1654,-0.1651,-0.1684,-0.1694,-0.1648,-0.1673,-0.1638,-0.1574,-0.1534,-0.1514,-0.1298,-0.1196,-0.1061,-0.1051,-0.1004,-0.0937,-0.0991,-0.0895,-0.0888,-0.0881,-0.0782,-0.0765,-0.0961,-0.096,-0.0959,-0.0959,0,-0.1676,-0.1706,-0.173,-0.1751,-0.1759,-0.1778,-0.1748,-0.1723,-0.1673,-0.1615,-0.1501,-0.1368,-0.1228,-0.1177,-0.1109,-0.0992,-0.0961,-0.0929,-0.0891,-0.0884,-0.0779,-0.0759,-0.0968,-0.0966,-0.0965,-0.0963,0,0,-0.1695,-0.1762,-0.1766,-0.179,-0.1797,-0.1808,-0.1795,-0.1759,-0.1719,-0.1639,-0.1573,-0.1405,-0.1317,-0.1231,-0.1116,-0.1018,-0.091,-0.0964,-0.0955,-0.0888,-0.0679,-0.0549,-0.0514,-0.0872,-0.0869,-0.0867,-0.0629,0,-0.1738,-0.1816,-0.1832,-0.188,-0.1912,-0.1884,-0.188,-0.1832,-0.176,-0.1684,-0.1533,-0.1419,-0.134,-0.126,-0.1154,-0.0971,-0.0861,-0.0978,-0.0676,-0.0667,-0.057,-0.0487,-0.0444,-0.0218,-0.0609,-0.0606,-0.0603,0,-0.1787,-0.1834,-0.1905,-0.1948,-0.196,-0.1973,-0.194,-0.1926,-0.1809,-0.175,-0.1612,-0.1489,-0.1308,-0.126,-0.0953,-0.1038,-0.0867,-0.0736,-0.0722,-0.0545,-0.0498,-0.0283,-0.0166,-0.0039,-0.0571,-0.0574,-0.0576,0,-0.1798,-0.1875,-0.1934,-0.1954,-0.1995,-0.2007,-0.2008,-0.1932,-0.1898,-0.1765,-0.17,-0.1499,-0.1382,-0.1157,-0.0867,-0.0911,-0.0542,-0.0559,-0.0278,-0.0268,-0.0137,-0.012,0.0125,-0.0338,-0.0338,-0.0339,-0.034,0,-0.1832,-0.1871,-0.1948,-0.1978,-0.2025,-0.2044,-0.204,-0.2006,-0.1931,-0.1854,-0.1719,-0.1621,-0.1355,-0.111,-0.0869,-0.0485,-0.0522,-0.0252,-0.0179,-0.0175,-0.0164,0.0028,0.0029,-0.033,-0.0332,-0.0334,-0.0335,0,-0.1818,-0.188,-0.1942,-0.2011,-0.2034,-0.2058,-0.2074,-0.2048,-0.1989,-0.1883,-0.1837,-0.1684,-0.1379,-0.1054,-0.0679,-0.0465,-0.001,0.0025,0.0011,0.008,0.0427,0.0418,0.0729,0.0846,0.035,0.0355,0.0359,0,-0.1811,-0.1854,-0.1951,-0.1985,-0.2016,-0.2057,-0.2073,-0.2064,-0.2025,-0.1904,-0.1848,-0.1588,-0.1418,-0.0836,-0.0357,0.0135,0.0212,0.0453,0.0395,0.0496,0.0539,0.0499,0.0569,0.0513,0.0518,0.0523,0.0526,0,-0.178,-0.1824,-0.1875,-0.1954,-0.1997,-0.2037,-0.2057,-0.2044,-0.1997,-0.1916,-0.1822,-0.1715,-0.1193,-0.0699,-0.004,0.0262,0.053,0.0554,0.0672,0.0718,0.0679,0.0808,0.0284,0.0563,0.0559,0.0556,0.0555,0.0553,-0.1729,-0.1757,-0.1833,-0.19,-0.1954,-0.1985,-0.1976,-0.1975,-0.1927,-0.1786,-0.1812,-0.1654,-0.0997,-0.0112,0.0226,0.0966,0.0857,0.1105,0.1096,0.1055,0.1149,0.0713,0.1064,0.1063,0.1062,0.1062,0.1061,0,-0.1649,-0.1703,-0.1766,-0.1842,-0.1876,-0.1926,-0.1932,-0.1876,-0.1789,-0.173,-0.1668,-0.1226,-0.0498,0.0174,0.124,0.1493,0.1488,0.1582,0.1503,0.156,0.1212,0.12,0.158,0.158,0.158,0.158,0.1579,0.1579,-0.1606,-0.1642,-0.1694,-0.1742,-0.179,-0.1777,-0.1761,-0.1674,-0.1614,-0.141,-0.1279,-0.1226,-0.0259,0.0962,0.1822,0.1889,0.1986,0.1941,0.2032,0.1726,0.1677,0.1631,0.1626,0.2089,0.2089,0.2373,0.2376,0.2378]}],[{"header":{"parameterUnit":"m.s-1","parameterCategory":2,"la1":30.2991,"la2":30.254,"lo1":-89.0895,"lo2":-89.0444,"dy":0.0017,"dx":0.0017,"nx":28,"ny":28,"refTime":"2023-10-21T21:00:00:Z","depth":"2","parameterNumber":2,"parameterNumberName":"U-component_of_CURRENTS"},"data":[0,0,0,0,0,0,0,0,0,0,0,0,0,0,0,0,0,0,0,0,0,0,0,0,0,0,0,0,0,0,0,0,0,0,0,0,0,0,0,0,0,0,0,0,0,0,0,0,0,0,0,0,0,0,0,0,0,0,-0.2532,-0.2532,0,-0.2499,-0.2498,-0.2497,-0.2409,-0.2408,-0.2407,-0.2405,-0.2271,-0.2269,-0.2267,0,0,0,0,0,0,0,0,0,0,0,0,0,-0.2442,-0.2444,-0.2532,-0.2532,-0.2533,-0.2499,-0.2498,-0.2497,-0.2409,-0.2408,-0.2406,-0.2405,-0.2272,-0.2269,-0.2266,0,0,0,0,0,0,0,0,0,0,0,0,0,-0.2445,-0.2444,-0.2532,-0.249,-0.2487,-0.25,-0.2498,-0.2497,-0.241,-0.2408,-0.2406,-0.2404,-0.2273,-0.227,-0.2266,-0.228,0,0,-0.2255,-0.2253,0,0,0,0,0,0,0,0,-0.2445,-0.2448,-0.2496,-0.2493,-0.2489,-0.2463,-0.2417,-0.2422,-0.241,-0.2431,-0.2405,-0.2403,-0.2332,-0.2323,-0.2312,-0.2274,-0.2268,-0.2254,-0.2252,-0.2251,-0.225,0,0,0,0,0,0,0,-0.2445,-0.2448,-0.2512,-0.2497,-0.2493,-0.2447,-0.2445,-0.2417,-0.2385,-0.2429,-0.2425,-0.2433,-0.2328,-0.2316,-0.2308,-0.2266,-0.2255,-0.2251,-0.2249,-0.2248,-0.2226,-0.2227,0,0,0,0,0,0,-0.2471,-0.2449,-0.2513,-0.2511,-0.247,-0.2451,-0.2449,-0.2467,-0.2387,-0.2376,-0.2435,-0.2429,-0.2323,-0.2313,-0.2303,-0.2329,-0.2251,-0.2247,-0.2245,-0.2224,-0.2226,-0.2228,0,0,0,0,0,0,-0.2469,-0.2477,-0.2514,-0.2484,-0.2486,-0.2456,-0.2476,-0.2468,-0.2452,-0.2394,-0.2379,-0.2428,-0.2321,-0.2308,-0.2288,-0.2322,-0.2246,-0.2242,-0.2222,-0.2225,-0.2227,-0.2371,0,0,0,0,0,0,-0.2467,-0.2477,-0.249,-0.2487,-0.249,-0.2545,-0.2479,-0.2469,-0.2464,-0.2456,-0.2384,-0.2369,-0.2319,-0.2294,-0.2284,-0.2316,-0.224,-0.222,-0.2223,-0.2226,-0.2364,-0.2378,-0.239,0,0,0,0,0,-0.2464,-0.2496,-0.2492,-0.2499,-0.2513,-0.2548,-0.2546,-0.2511,-0.2466,-0.2482,-0.2424,-0.2371,-0.2306,-0.2293,-0.2281,-0.2312,-0.2219,-0.2223,-0.2226,-0.2359,-0.2376,-0.239,0,0,0,0,0,0,-0.246,-0.2491,-0.2485,-0.2524,-0.2547,-0.2537,-0.2542,-0.252,-0.2488,-0.2462,-0.2393,-0.2377,-0.2365,-0.2324,-0.2311,-0.2314,-0.2254,-0.2255,-0.2359,-0.2374,-0.2386,-0.2385,-0.2236,0,0,0,0,0,-0.2473,-0.2503,-0.2529,-0.2561,-0.2574,-0.2558,-0.2561,-0.2545,-0.2523,-0.2504,-0.2459,-0.2406,-0.2375,-0.2362,-0.2322,-0.2334,-0.2294,-0.2345,-0.2358,-0.2369,-0.2361,-0.2372,-0.2386,-0.224,-0.224,-0.224,0,0,-0.2479,-0.2501,-0.2516,-0.2562,-0.2563,-0.2597,-0.2553,-0.257,-0.2589,-0.2496,-0.2491,-0.2443,-0.2384,-0.2388,-0.2382,-0.2359,-0.2388,-0.2374,-0.2384,-0.2368,-0.2377,-0.2392,-0.2404,-0.2242,-0.2242,-0.2241,0,0,-0.2512,-0.253,-0.2565,-0.2594,-0.2621,-0.2623,-0.2636,-0.2637,-0.2627,-0.2632,-0.2564,-0.2545,-0.2499,-0.2476,-0.2453,-0.2516,-0.2448,-0.2502,-0.2578,-0.2591,-0.2603,-0.2613,-0.2577,-0.2582,-0.2521,-0.2521,-0.2522,0,-0.2513,-0.2566,-0.2582,-0.2625,-0.2645,-0.2641,-0.2678,-0.2687,-0.2679,-0.2681,-0.2645,-0.259,-0.2542,-0.2553,-0.2567,-0.2546,-0.2522,-0.2528,-0.261,-0.2619,-0.2627,-0.2586,-0.2591,-0.2529,-0.2528,-0.2527,-0.2526,0,-0.2573,-0.2614,-0.2639,-0.2691,-0.272,-0.2754,-0.2779,-0.2798,-0.2778,-0.2779,-0.2781,-0.2729,-0.269,-0.2692,-0.2641,-0.2681,-0.2633,-0.2619,-0.2575,-0.2651,-0.2602,-0.2605,-0.2539,-0.2537,-0.2534,-0.2533,0,0,-0.2562,-0.2662,-0.2664,-0.2697,-0.2752,-0.2779,-0.283,-0.2874,-0.2888,-0.2895,-0.2908,-0.2884,-0.2844,-0.2815,-0.2771,-0.2791,-0.2822,-0.2734,-0.2731,-0.2703,-0.2818,-0.2546,-0.2521,-0.2832,-0.2833,-0.2835,-0.276,0,-0.2593,-0.2685,-0.2721,-0.2791,-0.2836,-0.2859,-0.2901,-0.2937,-0.2949,-0.2966,-0.2954,-0.2934,-0.29,-0.2866,-0.2892,-0.2822,-0.2835,-0.284,-0.2741,-0.2736,-0.2492,-0.2517,-0.2353,-0.2251,-0.2761,-0.2761,-0.2761,0,-0.2616,-0.2683,-0.2758,-0.2838,-0.2854,-0.2884,-0.2933,-0.2975,-0.3017,-0.3019,-0.3034,-0.3002,-0.3008,-0.2964,-0.2938,-0.2943,-0.2885,-0.285,-0.2847,-0.2537,-0.2468,-0.2257,-0.2235,-0.2764,-0.2764,-0.2764,-0.2763,0,-0.2578,-0.269,-0.2746,-0.2777,-0.2873,-0.2889,-0.2925,-0.2976,-0.2988,-0.304,-0.3017,-0.3061,-0.3002,-0.3013,-0.2881,-0.2932,-0.2816,-0.2883,-0.2594,-0.2574,-0.2378,-0.2335,-0.2872,-0.2872,-0.2873,-0.2873,-0.2873,0,-0.258,-0.2619,-0.2728,-0.2757,-0.2793,-0.2868,-0.2884,-0.2931,-0.2969,-0.2942,-0.3015,-0.2942,-0.3008,-0.2924,-0.2891,-0.2681,-0.2816,-0.2582,-0.2534,-0.2417,-0.2381,-0.2782,-0.2772,-0.287,-0.2871,-0.2871,-0.2872,0,-0.2505,-0.2589,-0.2643,-0.2747,-0.2768,-0.2777,-0.282,-0.2826,-0.2883,-0.2841,-0.2841,-0.2844,-0.2715,-0.2709,-0.2655,-0.26,-0.2496,-0.2383,-0.2194,-0.2122,-0.2271,-0.227,-0.2145,-0.2135,-0.2126,-0.2119,-0.2113,0,-0.2477,-0.2506,-0.2593,-0.2589,-0.2617,-0.2651,-0.2653,-0.275,-0.2733,-0.2714,-0.2651,-0.2554,-0.2398,-0.2208,-0.211,-0.1997,-0.2155,-0.1778,-0.185,-0.2229,-0.2197,-0.221,-0.222,-0.1673,-0.1664,-0.1657,-0.1651,0,-0.2387,-0.2401,-0.2429,-0.2451,-0.2448,-0.2471,-0.2476,-0.2444,-0.2504,-0.2441,-0.2288,-0.218,-0.1971,-0.1734,-0.1563,-0.15,-0.1805,-0.1612,-0.2071,-0.1841,-0.1766,-0.1739,-0.177,-0.1584,-0.159,-0.1595,-0.1599,-0.1601,-0.2255,-0.2242,-0.2262,-0.2268,-0.2276,-0.2244,-0.2177,-0.2163,-0.2076,-0.1934,-0.1925,-0.1684,-0.1627,-0.1238,-0.1124,-0.1065,-0.123,-0.1253,-0.1287,-0.1326,-0.1242,-0.1151,-0.0838,-0.084,-0.0842,-0.0844,-0.0845,0,-0.2073,-0.2079,-0.208,-0.2059,-0.2004,-0.2083,-0.2019,-0.1902,-0.1702,-0.1619,-0.146,-0.1153,-0.0922,-0.0877,-0.0672,-0.0629,-0.0753,-0.0616,-0.082,-0.088,-0.0936,-0.0846,-0.033,-0.0329,-0.0328,-0.0327,0,0,-0.1959,-0.1898,-0.1935,-0.1802,-0.1781,-0.1651,-0.1577,-0.1411,-0.1309,-0.1075,-0.0924,-0.0898,-0.0842,-0.0598,-0.0533,-0.0412,-0.0675,-0.038,-0.0784,-0.1086,-0.1143,-0.1268,-0.1186,0,0,0,0,0]},{"header":{"parameterUnit":"m.s-1","parameterCategory":2,"la1":30.2991,"la2":30.254,"lo1":-89.0895,"lo2":-89.0444,"dy":0.0017,"dx":0.0017,"nx":28,"ny":28,"refTime":"2023-10-21T21:00:00:Z","depth":"2","parameterNumber":3,"parameterNumberName":"V-component_of_CURRENTS"},"data":[0,0,0,0,0,0,0,0,0,0,0,0,0,0,0,0,0,0,0,0,0,0,0,0,0,0,0,0,0,0,0,0,0,0,0,0,0,0,0,0,0,0,0,0,0,0,0,0,0,0,0,0,0,0,0,0,0,0,0.0749,0.0751,0,0.0885,0.0887,0.0888,0.0909,0.0908,0.0907,0.0906,0.0994,0.0997,0.1,0,0,0,0,0,0,0,0,0,0,0,0,0,0.061,0.0611,0.0749,0.0751,0.0752,0.0885,0.0887,0.0889,0.091,0.0908,0.0907,0.0905,0.0992,0.0997,0.1001,0,0,0,0,0,0,0,0,0,0,0,0,0,0.07,0.0612,0.0749,0.0779,0.0783,0.0884,0.0887,0.0889,0.091,0.0908,0.0906,0.0905,0.0991,0.0996,0.1001,0.107,0,0,0.1017,0.1019,0,0,0,0,0,0,0,0,0.0695,0.0705,0.0773,0.0777,0.0781,0.0878,0.087,0.0947,0.091,0.0862,0.0906,0.0904,0.0952,0.096,0.0991,0.1074,0.1078,0.1018,0.1021,0.1023,0.1025,0,0,0,0,0,0,0,0.0688,0.07,0.0803,0.0775,0.078,0.082,0.083,0.0885,0.0915,0.0866,0.0868,0.0883,0.0954,0.0986,0.0993,0.108,0.1018,0.1022,0.1025,0.1027,0.1138,0.1138,0,0,0,0,0,0,0.0668,0.0694,0.0799,0.0807,0.0733,0.0824,0.0835,0.0849,0.0915,0.0924,0.0885,0.0884,0.0978,0.0987,0.0996,0.098,0.1023,0.1028,0.1031,0.1138,0.1138,0.1138,0,0,0,0,0,0,0.0665,0.0677,0.0793,0.0753,0.0771,0.0827,0.0844,0.0853,0.085,0.093,0.0937,0.0868,0.0977,0.0989,0.1019,0.0987,0.103,0.1035,0.1138,0.1138,0.1138,0.1013,0,0,0,0,0,0,0.066,0.0674,0.0661,0.0752,0.0772,0.0831,0.0846,0.0857,0.0864,0.0863,0.0919,0.0927,0.0976,0.1011,0.1024,0.0995,0.1039,0.1139,0.1138,0.1138,0.1017,0.1008,0.1001,0,0,0,0,0,0.0655,0.0644,0.066,0.0672,0.0758,0.0831,0.0844,0.0879,0.0865,0.0867,0.0899,0.0924,0.1017,0.1015,0.1031,0.1002,0.1139,0.1138,0.1138,0.1021,0.101,0.1001,0,0,0,0,0,0,0.0567,0.0649,0.0667,0.0677,0.0739,0.0833,0.083,0.0858,0.0889,0.0866,0.0931,0.0944,0.0957,0.1006,0.1002,0.1036,0.1079,0.1081,0.0984,0.0975,0.0967,0.0935,0.1043,0,0,0,0,0,0.0547,0.0557,0.0649,0.0651,0.0674,0.0744,0.0768,0.0796,0.0846,0.0855,0.0895,0.0935,0.0978,0.0992,0.1042,0.1067,0.1102,0.1058,0.105,0.1042,0.1029,0.1052,0.1044,0.1136,0.1136,0.1136,0,0,0.0509,0.0556,0.0558,0.0633,0.0674,0.0702,0.0752,0.0775,0.0787,0.0861,0.0861,0.0908,0.0979,0.1002,0.1011,0.103,0.1037,0.1041,0.1034,0.1025,0.1051,0.1041,0.1033,0.1136,0.1136,0.1136,0,0,0.0451,0.0483,0.0476,0.0524,0.0583,0.064,0.0636,0.0712,0.0726,0.0757,0.0802,0.0831,0.0896,0.0943,0.0975,0.0957,0.0993,0.096,0.0889,0.0911,0.0902,0.0896,0.0929,0.0926,0.0953,0.0953,0.0952,0,0.0398,0.0408,0.0483,0.0495,0.0513,0.06,0.0595,0.0644,0.0714,0.0723,0.0732,0.0815,0.0871,0.0905,0.0892,0.0935,0.0949,0.0914,0.0896,0.089,0.0885,0.0922,0.092,0.0947,0.0947,0.0948,0.0948,0,0.0354,0.035,0.0347,0.039,0.0426,0.0433,0.0518,0.0538,0.056,0.0611,0.0634,0.0716,0.0757,0.0783,0.083,0.0823,0.0846,0.088,0.091,0.0867,0.091,0.091,0.0938,0.094,0.0942,0.0943,0,0,0.026,0.0303,0.0297,0.029,0.0363,0.039,0.0408,0.046,0.0454,0.0517,0.0508,0.059,0.0616,0.0655,0.0715,0.0741,0.0726,0.0774,0.0778,0.0788,0.0764,0.0751,0.0751,0.0736,0.0736,0.0735,0.0807,0,0.0192,0.017,0.0221,0.0192,0.0186,0.0266,0.0281,0.0337,0.0383,0.0404,0.0486,0.0501,0.0574,0.0566,0.0605,0.0701,0.072,0.0704,0.0822,0.0826,0.0803,0.0749,0.0738,0.0797,0.0808,0.0809,0.0809,0,0.0129,0.0123,0.0072,0.0086,0.0089,0.0081,0.0107,0.0135,0.0209,0.0238,0.0276,0.0343,0.0399,0.0451,0.0578,0.0553,0.0631,0.0712,0.0717,0.0745,0.0812,0.0845,0.0798,0.081,0.081,0.081,0.081,0,0.0023,0.0018,-0.0038,-0.0032,0.0004,-0.0025,-0.001,0.0055,0.0073,0.0107,0.011,0.0203,0.0226,0.034,0.0516,0.0521,0.066,0.07,0.0771,0.0773,0.0809,0.0814,0.0761,0.0761,0.0761,0.0761,0.076,0,-0.0063,-0.0108,-0.0108,-0.014,-0.0201,-0.0148,-0.0196,-0.0158,-0.0117,-0.0099,-0.0014,0.0023,0.0188,0.0308,0.0465,0.062,0.0621,0.0739,0.0777,0.0767,0.0767,0.0821,0.0827,0.0763,0.0763,0.0762,0.0762,0,-0.0169,-0.0171,-0.0232,-0.0247,-0.0259,-0.0314,-0.0311,-0.0316,-0.0289,-0.0271,-0.0276,-0.0133,0.0027,0.0228,0.0435,0.0538,0.0705,0.076,0.074,0.0771,0.0815,0.0815,0.0822,0.0822,0.0821,0.0821,0.0821,0,-0.022,-0.0271,-0.0324,-0.0366,-0.0392,-0.0448,-0.046,-0.0421,-0.04,-0.0335,-0.0314,-0.0195,-0.0028,0.0263,0.0462,0.0703,0.0734,0.0774,0.078,0.0779,0.0815,0.0815,0.0814,0.0797,0.0796,0.0796,0.0796,0,-0.0316,-0.0352,-0.0397,-0.048,-0.0533,-0.055,-0.0567,-0.0559,-0.0488,-0.0457,-0.036,-0.0241,0.0023,0.0292,0.0555,0.0691,0.0731,0.0772,0.078,0.0767,0.0756,0.0792,0.0792,0.0794,0.0794,0.0794,0.0794,0.0794,-0.0387,-0.0446,-0.051,-0.0583,-0.0627,-0.0628,-0.0624,-0.0588,-0.0541,-0.0415,-0.0327,-0.0075,0.01,0.0552,0.0658,0.0735,0.0759,0.0792,0.0792,0.0793,0.0761,0.0749,0.0781,0.0781,0.0781,0.0781,0.0781,0,-0.045,-0.0516,-0.0592,-0.0653,-0.0675,-0.0697,-0.0658,-0.0599,-0.0518,-0.0323,-0.0186,0.0117,0.041,0.0604,0.0726,0.0768,0.0763,0.0763,0.0762,0.0764,0.0766,0.0732,0.0745,0.0744,0.0744,0.0744,0,0,-0.0492,-0.0576,-0.061,-0.0668,-0.0707,-0.0699,-0.0667,-0.0574,-0.0398,-0.0179,0.0059,0.0354,0.0564,0.0651,0.0682,0.0722,0.0723,0.0711,0.0738,0.0733,0.0734,0.0784,0.0733,0,0,0,0,0]}],[{"header":{"parameterUnit":"m.s-1","parameterCategory":2,"la1":30.2991,"la2":30.254,"lo1":-89.0895,"lo2":-89.0444,"dy":0.0017,"dx":0.0017,"nx":28,"ny":28,"refTime":"2023-10-21T21:00:00:Z","depth":"4","parameterNumber":2,"parameterNumberName":"U-component_of_CURRENTS"},"data":[0,0,0,0,0,0,0,0,0,0,0,0,0,0,0,0,0,0,0,0,0,0,0,0,0,0,0,0,0,0,0,0,0,0,0,0,0,0,0,0,0,0,0,0,0,0,0,0,0,0,0,0,0,0,0,0,0,0,-0.086,-0.0861,0,-0.094,-0.0941,-0.0941,-0.0981,-0.0981,-0.0981,-0.0982,-0.1101,-0.1104,-0.1107,0,0,0,0,0,0,0,0,0,0,0,0,0,-0.0771,-0.0772,-0.0859,-0.0861,-0.0862,-0.094,-0.0941,-0.0942,-0.0981,-0.0981,-0.0981,-0.0982,-0.11,-0.1104,-0.1107,0,0,0,0,0,0,0,0,0,0,0,0,0,-0.0823,-0.0772,-0.0859,-0.0893,-0.0897,-0.094,-0.0941,-0.0942,-0.0981,-0.0981,-0.0981,-0.0982,-0.1099,-0.1103,-0.1108,-0.1126,0,0,-0.1121,-0.1123,0,0,0,0,0,0,0,0,-0.082,-0.0826,-0.0887,-0.0891,-0.0896,-0.0954,-0.0954,-0.1006,-0.098,-0.0946,-0.0982,-0.0982,-0.1057,-0.1065,-0.1074,-0.1132,-0.1137,-0.1121,-0.1124,-0.1126,-0.1127,0,0,0,0,0,0,0,-0.0816,-0.0823,-0.0888,-0.0889,-0.0894,-0.0916,-0.0923,-0.0964,-0.0996,-0.0949,-0.0952,-0.0967,-0.106,-0.107,-0.1077,-0.1139,-0.1121,-0.1125,-0.1128,-0.113,-0.1284,-0.1286,0,0,0,0,0,0,-0.0811,-0.0819,-0.0886,-0.0891,-0.0862,-0.0917,-0.0925,-0.0932,-0.0995,-0.1006,-0.0966,-0.0968,-0.1062,-0.1072,-0.1082,-0.1175,-0.1126,-0.113,-0.1133,-0.1283,-0.1285,-0.1286,0,0,0,0,0,0,-0.0809,-0.0816,-0.0882,-0.086,-0.087,-0.0918,-0.0926,-0.0933,-0.0958,-0.1009,-0.1019,-0.0984,-0.1063,-0.1076,-0.1132,-0.1177,-0.1132,-0.1136,-0.1281,-0.1283,-0.1285,-0.1318,0,0,0,0,0,0,-0.0805,-0.0814,-0.0828,-0.0859,-0.0872,-0.0921,-0.0926,-0.0935,-0.0966,-0.097,-0.1028,-0.1038,-0.1064,-0.1125,-0.1136,-0.1182,-0.1139,-0.1279,-0.1282,-0.1285,-0.1315,-0.1321,-0.1326,0,0,0,0,0,-0.0802,-0.0823,-0.0828,-0.0837,-0.0885,-0.0922,-0.0931,-0.0964,-0.0967,-0.0985,-0.102,-0.1037,-0.1151,-0.1129,-0.1142,-0.1191,-0.1278,-0.1281,-0.1284,-0.1312,-0.1319,-0.1326,0,0,0,0,0,0,-0.0791,-0.083,-0.0836,-0.0867,-0.0897,-0.0931,-0.0956,-0.0969,-0.1009,-0.102,-0.1051,-0.1065,-0.1135,-0.1153,-0.1128,-0.1243,-0.122,-0.1225,-0.1236,-0.1244,-0.1249,-0.1254,-0.1143,0,0,0,0,0,-0.0793,-0.082,-0.0852,-0.0877,-0.0892,-0.0921,-0.0944,-0.0967,-0.1003,-0.1021,-0.1067,-0.1113,-0.1156,-0.1189,-0.1234,-0.1292,-0.1279,-0.1333,-0.1339,-0.1343,-0.1356,-0.1353,-0.1359,-0.1297,-0.1297,-0.1297,0,0,-0.0796,-0.0821,-0.0837,-0.0877,-0.09,-0.0939,-0.0936,-0.0978,-0.102,-0.1029,-0.1109,-0.1138,-0.1175,-0.1244,-0.1278,-0.1267,-0.1353,-0.1347,-0.1351,-0.1361,-0.1357,-0.1363,-0.1368,-0.1299,-0.1299,-0.1299,0,0,-0.0814,-0.0834,-0.0862,-0.0891,-0.0938,-0.0963,-0.0975,-0.1026,-0.1058,-0.1127,-0.1143,-0.1185,-0.1273,-0.1298,-0.132,-0.1379,-0.1379,-0.1411,-0.1451,-0.1448,-0.1452,-0.1456,-0.1435,-0.1437,-0.1417,-0.1417,-0.1417,0,-0.0815,-0.0855,-0.0877,-0.0913,-0.0949,-0.0973,-0.1016,-0.1051,-0.1121,-0.1157,-0.1165,-0.1278,-0.1295,-0.1363,-0.1384,-0.1392,-0.139,-0.142,-0.1453,-0.1457,-0.146,-0.1438,-0.1439,-0.1419,-0.1419,-0.1419,-0.1418,0,-0.0852,-0.0893,-0.0912,-0.0968,-0.1007,-0.1049,-0.11,-0.1149,-0.1193,-0.1235,-0.1325,-0.1351,-0.1413,-0.1429,-0.1427,-0.1477,-0.1466,-0.1454,-0.1431,-0.1468,-0.1442,-0.1443,-0.1422,-0.1421,-0.142,-0.142,0,0,-0.0824,-0.0921,-0.093,-0.0965,-0.1043,-0.1073,-0.1151,-0.1224,-0.1272,-0.1351,-0.1415,-0.148,-0.1497,-0.1521,-0.1527,-0.1529,-0.1528,-0.1512,-0.1511,-0.1481,-0.1521,-0.1424,-0.1415,-0.1531,-0.1532,-0.1532,-0.1488,0,-0.0845,-0.0922,-0.0976,-0.1053,-0.1089,-0.1151,-0.122,-0.1292,-0.1354,-0.1423,-0.1464,-0.1525,-0.1532,-0.1554,-0.1566,-0.154,-0.1537,-0.1541,-0.1499,-0.1497,-0.1398,-0.1415,-0.1535,-0.1488,-0.1488,-0.1488,-0.1489,0,-0.0855,-0.0909,-0.0993,-0.1092,-0.1116,-0.1172,-0.1274,-0.1342,-0.1437,-0.1486,-0.1561,-0.1592,-0.1628,-0.1607,-0.161,-0.1621,-0.1581,-0.1553,-0.155,-0.1451,-0.1402,-0.1448,-0.149,-0.149,-0.149,-0.149,-0.149,0,-0.0809,-0.0915,-0.0986,-0.102,-0.1139,-0.1193,-0.1256,-0.1361,-0.1414,-0.1514,-0.155,-0.1628,-0.1639,-0.1638,-0.161,-0.1608,-0.159,-0.1565,-0.1442,-0.1434,-0.152,-0.1517,-0.1551,-0.1551,-0.1551,-0.1551,-0.1551,0,-0.0801,-0.0852,-0.0967,-0.1004,-0.1071,-0.1171,-0.125,-0.1324,-0.1426,-0.1472,-0.1571,-0.1594,-0.1647,-0.1654,-0.1625,-0.1545,-0.1602,-0.1451,-0.1419,-0.1533,-0.1532,-0.1519,-0.1516,-0.1549,-0.155,-0.155,-0.155,0,-0.0739,-0.0825,-0.0894,-0.102,-0.1051,-0.1096,-0.1212,-0.1266,-0.1376,-0.143,-0.1457,-0.156,-0.1558,-0.1602,-0.1574,-0.1529,-0.1475,-0.1429,-0.1553,-0.153,-0.1313,-0.1312,-0.1268,-0.1265,-0.1261,-0.1259,-0.1256,0,-0.0718,-0.0752,-0.087,-0.0888,-0.0945,-0.1019,-0.1071,-0.1213,-0.1262,-0.1382,-0.139,-0.1441,-0.1486,-0.1387,-0.1441,-0.1401,-0.1379,-0.1351,-0.1331,-0.1311,-0.1286,-0.129,-0.1294,-0.1251,-0.1251,-0.125,-0.1249,0,-0.0641,-0.0692,-0.0731,-0.0789,-0.0842,-0.0911,-0.0991,-0.1019,-0.1171,-0.1265,-0.1269,-0.1277,-0.1277,-0.1285,-0.1285,-0.1253,-0.1376,-0.1317,-0.1323,-0.1303,-0.129,-0.1269,-0.1276,-0.1238,-0.124,-0.1241,-0.1241,0,-0.0562,-0.056,-0.0613,-0.066,-0.0718,-0.0787,-0.0856,-0.091,-0.0982,-0.1125,-0.1103,-0.1168,-0.1236,-0.1205,-0.1198,-0.1179,-0.1139,-0.1094,-0.111,-0.1123,-0.1102,-0.1066,-0.0916,0,0,0,0,0,-0.0488,-0.0477,-0.048,-0.0544,-0.0606,-0.0669,-0.0791,-0.0877,-0.1011,-0.0969,-0.1038,-0.1029,-0.1023,-0.1063,-0.1008,-0.1136,-0.1157,-0.1068,-0.1117,-0.1177,-0.119,-0.1183,0,0,0,0,0,0,-0.0436,-0.0425,-0.0432,-0.0428,-0.0467,-0.0558,-0.065,-0.0757,-0.075,-0.0864,-0.0865,-0.0934,-0.0949,-0.1014,-0.0968,-0.0981,-0.0985,-0.111,-0.1107,-0.117,-0.1181,-0.1191,-0.1189,0,0,0,0,0]},{"header":{"parameterUnit":"m.s-1","parameterCategory":2,"la1":30.2991,"la2":30.254,"lo1":-89.0895,"lo2":-89.0444,"dy":0.0017,"dx":0.0017,"nx":28,"ny":28,"refTime":"2023-10-21T21:00:00:Z","depth":"4","parameterNumber":3,"parameterNumberName":"V-component_of_CURRENTS"},"data":[0,0,0,0,0,0,0,0,0,0,0,0,0,0,0,0,0,0,0,0,0,0,0,0,0,0,0,0,0,0,0,0,0,0,0,0,0,0,0,0,0,0,0,0,0,0,0,0,0,0,0,0,0,0,0,0,0,0,-0.0084,-0.0083,0,-0.0024,-0.0024,-0.0023,0.0018,0.0018,0.0018,0.0019,0.0049,0.005,0.005,0,0,0,0,0,0,0,0,0,0,0,0,0,-0.0085,-0.0085,-0.0084,-0.0083,-0.0082,-0.0024,-0.0024,-0.0023,0.0018,0.0018,0.0018,0.0019,0.0049,0.005,0.005,0,0,0,0,0,0,0,0,0,0,0,0,0,-0.0061,-0.0086,-0.0084,-0.0055,-0.0052,-0.0025,-0.0024,-0.0023,0.0017,0.0018,0.0018,0.0019,0.0049,0.0049,0.005,0.0045,0,0,0.0053,0.0053,0,0,0,0,0,0,0,0,-0.0063,-0.0061,-0.006,-0.0057,-0.0053,-0.001,-0.0013,-0.0001,0.0017,-0.0009,0.0019,0.0019,0.0026,0.0029,0.0039,0.0047,0.0048,0.0053,0.0053,0.0053,0.0054,0,0,0,0,0,0,0,-0.0065,-0.0063,-0.0061,-0.0059,-0.0055,-0.0018,-0.0015,-0.001,0.0004,-0.0007,-0.0004,0.0003,0.0028,0.0038,0.004,0.0048,0.0053,0.0053,0.0054,0.0054,0.0093,0.0094,0,0,0,0,0,0,-0.0076,-0.0065,-0.0062,-0.0059,-0.0057,-0.0019,-0.0015,-0.0025,0.0005,0.0011,0.0003,0.0005,0.0037,0.0039,0.0041,0.0081,0.0053,0.0054,0.0055,0.0093,0.0093,0.0094,0,0,0,0,0,0,-0.0077,-0.0077,-0.0065,-0.0059,-0.0055,-0.002,-0.003,-0.0024,-0.0011,0.0013,0.0018,0.0009,0.0037,0.004,0.005,0.0081,0.0055,0.0055,0.0092,0.0093,0.0094,0.0133,0,0,0,0,0,0,-0.0077,-0.0078,-0.0085,-0.0061,-0.0056,-0.0054,-0.003,-0.0023,-0.0008,-0.0004,0.0019,0.0023,0.0038,0.0049,0.0051,0.0082,0.0056,0.0091,0.0092,0.0093,0.0131,0.0135,0.0139,0,0,0,0,0,-0.0078,-0.0088,-0.0086,-0.0085,-0.0068,-0.0054,-0.0048,-0.0021,-0.0008,-0.0007,0.0014,0.0022,0.0058,0.0049,0.0052,0.0084,0.0091,0.0092,0.0093,0.0129,0.0134,0.0138,0,0,0,0,0,0,-0.0086,-0.0084,-0.0081,-0.0089,-0.0076,-0.0047,-0.0038,-0.0024,-0.0006,0.0001,0.0021,0.0025,0.0048,0.0051,0.0042,0.0097,0.0079,0.0081,0.0106,0.011,0.0114,0.0121,0.0056,0,0,0,0,0,-0.0095,-0.0108,-0.0093,-0.0101,-0.0094,-0.0069,-0.0057,-0.004,-0.0021,-0.0012,0.0011,0.0034,0.0055,0.0069,0.0082,0.0105,0.0118,0.0129,0.0132,0.0136,0.0142,0.0199,0.0209,0.0098,0.0098,0.0098,0,0,-0.01,-0.0101,-0.0108,-0.0105,-0.0089,-0.0078,-0.0061,-0.0045,-0.0026,-0.0013,0.0022,0.0041,0.006,0.0094,0.0106,0.0103,0.017,0.0137,0.014,0.0145,0.0201,0.0212,0.0222,0.0099,0.0099,0.0099,0,0,-0.0116,-0.0119,-0.0131,-0.0123,-0.0105,-0.0085,-0.0084,-0.0052,-0.0026,-0.0003,0.0024,0.0061,0.0082,0.0123,0.014,0.0168,0.0182,0.0172,0.0207,0.0263,0.0273,0.0282,0.0296,0.0306,0.0182,0.0182,0.0182,0,-0.012,-0.0137,-0.0129,-0.0131,-0.0121,-0.0091,-0.0087,-0.0056,-0.0021,0.0006,0.0008,0.0085,0.0102,0.0166,0.0184,0.0181,0.0198,0.0191,0.027,0.0279,0.0288,0.0301,0.0311,0.0184,0.0184,0.0184,0.0184,0,-0.0137,-0.0149,-0.0151,-0.0147,-0.0133,-0.0127,-0.0086,-0.0058,-0.0025,0.0014,0.0078,0.0119,0.0166,0.0188,0.0195,0.0274,0.026,0.0263,0.0262,0.0302,0.0312,0.0322,0.0187,0.0186,0.0186,0.0185,0,0,-0.0153,-0.0164,-0.0165,-0.0171,-0.0142,-0.0135,-0.0093,-0.0046,-0.0016,0.0049,0.0099,0.0173,0.0209,0.0231,0.0265,0.0328,0.04,0.0326,0.0328,0.0346,0.0499,0.0439,0.0444,0.0424,0.0427,0.0429,0.0476,0,-0.0167,-0.0192,-0.018,-0.0184,-0.019,-0.0147,-0.0116,-0.0064,-0.0013,0.0044,0.0133,0.0181,0.0223,0.0245,0.0324,0.0377,0.0432,0.0385,0.0453,0.0454,0.0402,0.0456,0.0436,0.0484,0.0486,0.0488,0.0489,0,-0.0183,-0.0201,-0.0219,-0.0217,-0.0211,-0.0203,-0.015,-0.0116,-0.002,0.0022,0.0114,0.017,0.0282,0.0295,0.0445,0.0415,0.0459,0.0504,0.0507,0.0446,0.0414,0.0439,0.0508,0.0506,0.0505,0.0504,0.0503,0,-0.0209,-0.0225,-0.0245,-0.0245,-0.023,-0.0221,-0.0201,-0.0125,-0.0091,0.0006,0.0038,0.018,0.0234,0.0349,0.0447,0.045,0.0588,0.0597,0.0585,0.058,0.0601,0.0591,0.0694,0.0694,0.0694,0.0693,0.0693,0,-0.023,-0.0246,-0.0269,-0.028,-0.0292,-0.0264,-0.0247,-0.0202,-0.0135,-0.0086,0.002,0.0085,0.0253,0.0351,0.0447,0.0545,0.0589,0.0601,0.0602,0.0611,0.0602,0.0607,0.0597,0.0695,0.0695,0.0694,0.0694,0,-0.0252,-0.0266,-0.0294,-0.0304,-0.0309,-0.0317,-0.0298,-0.0278,-0.0216,-0.0151,-0.0123,0.0021,0.0155,0.0293,0.0458,0.0518,0.0624,0.0635,0.0609,0.0604,0.0577,0.0568,0.0648,0.0646,0.0645,0.0644,0.0643,0,-0.0264,-0.0288,-0.0323,-0.0342,-0.0352,-0.0364,-0.0363,-0.0319,-0.0293,-0.0181,-0.0149,-0.0023,0.0084,0.028,0.0414,0.0572,0.0586,0.062,0.064,0.0587,0.058,0.0572,0.0565,0.0641,0.0641,0.0641,0.064,0,-0.0287,-0.0304,-0.0329,-0.0371,-0.0391,-0.0409,-0.0409,-0.04,-0.0326,-0.028,-0.0148,-0.0027,0.0105,0.0274,0.0372,0.0493,0.0601,0.0608,0.0612,0.0632,0.058,0.0572,0.0566,0.0636,0.0637,0.0637,0.0637,0,-0.0294,-0.0325,-0.0357,-0.0386,-0.0422,-0.0437,-0.0437,-0.0394,-0.0358,-0.0236,-0.0195,-0.0026,0.0081,0.0229,0.0336,0.0432,0.0467,0.0498,0.0508,0.0514,0.0459,0.0373,0.0379,0,0,0,0,0,-0.0289,-0.0322,-0.0364,-0.04,-0.0439,-0.0448,-0.0451,-0.0438,-0.0383,-0.0292,-0.0238,-0.0103,0.0085,0.0173,0.0262,0.0291,0.0455,0.0393,0.0489,0.0613,0.0618,0.057,0,0,0,0,0,0,-0.029,-0.0329,-0.0359,-0.04,-0.0427,-0.0458,-0.0459,-0.0424,-0.0368,-0.0292,-0.0187,-0.0104,0.0075,0.004,0.0261,0.029,0.0356,0.049,0.0491,0.061,0.0615,0.0618,0.0571,0,0,0,0,0]}]]